Location: Alfortville
(48.8058°N, 2.4204°E)
Time: 05:27:20
(UTC+00:00)

USA 229 DEB - Pass Details

Date: 30 May 2022
Orbit: 934 x 1278 km, 63.4° (Epoch: 24 May)

Event Time Altitude Azimuth Distance (km) Brightness Sun altitude
Rises 21:15:53 0° 313° (NW) 3,878 8.5 -11.6°
Reaches altitude 10° 21:18:41 10° 322° (NW) 2,972 7.6 -11.9°
Maximum altitude 21:25:19 39° 30° (NNE) 1,685 5.0 -12.5°
Drops below altitude 10° 21:32:25 10° 97° (E) 3,186 5.8 -13.1°
Enters shadow 21:34:27 - 103° (ESE) 3,841 6.2 -13.3°
